Dansville, NY

4:59 AM EST on December 11, 2017 (GMT -0500)
Dansville Municipal

Weather History for KDSV - June, 2013

Change the Weather History Date:

Friday, June 28, 2013

  Actual Average Record
Temperature  
Mean Temperature 70 °F -  
Max Temperature 75 °F 81 °F 95 °F (1963)
Min Temperature 64 °F 56 °F 44 °F (1970)
Cooling Degree Days 6    
Growing Degree Days 20 (Base 50)    
Moisture  
Dew Point 65 °F    
Average Humidity 90    
Maximum Humidity 100    
Minimum Humidity 69    
Precipitation  
Precipitation 0.25 in - - ()
Sea Level Pressure  
Sea Level Pressure 29.57 in    
Wind  
Wind Speed 4 mph (NW)    
Max Wind Speed 12 mph    
Max Gust Speed -    
Visibility 8 miles    
Events Rain    
Averages and records for this station are not official NWS values.
T = Trace of Precipitation, MM = Missing Value Source: NWS Daily Summary

Daily Weather History Graph

Daily Weather History Graph

Search for Another Location

Airport or City:

Trip Planner

Search our weather history database for the weather conditions in past years. The results will help you decide how hot, cold, wet, or windy it might be!

Date:

Astronomy

Jun. 28, 2013 Rise Set
Actual Time 5:35 AM EDT 8:52 PM EDT
Civil Twilight 5:00 AM EDT 9:27 PM EDT
Nautical Twilight 4:15 AM EDT 10:12 PM EDT
Astronomical Twilight 3:20 AM EDT 11:07 PM EDT
Moon No Moon Rise 11:49 AM EDT (6/28)
Length of Visible Light 16h 26m
Length of Day
15h 16m
Waning Gibbous, 66% of the Moon is Illuminated
Jun 28
Waning Gibbous
Jun 30
Last Quarter
Jul 8
New
Jul 15
First Quarter
Jul 22
Full

Hourly Weather History & Observations

Time (EDT) Temp. Dew Point Humidity Pressure Visibility Wind Dir Wind Speed Gust Speed Precip Events Conditions
12:05 AM 68.0 °F 66.2 °F 94% 29.64 in 1.8 mi NW 6.9 mph - 0.08 in Rain Heavy Rain
12:11 AM 68.0 °F 66.2 °F 94% 29.64 in 2.0 mi West 4.6 mph - 0.10 in Rain Heavy Rain
12:16 AM 68.0 °F 66.2 °F 94% 29.64 in 3.0 mi WNW 5.8 mph - 0.11 in Rain Rain
12:54 AM 66.9 °F 64.9 °F 93% 29.62 in 10.0 mi Calm Calm - 0.11 in   Overcast
1:34 AM 66.2 °F 66.2 °F 100% 29.62 in 9.0 mi NNW 5.8 mph - N/A   Overcast
1:54 AM 66.9 °F 66.0 °F 97% 29.61 in 9.0 mi North 5.8 mph - 0.00 in Rain Light Rain
2:46 AM 66.2 °F 64.4 °F 94% 29.59 in 10.0 mi NW 6.9 mph - 0.00 in   Overcast
2:54 AM 66.9 °F 64.9 °F 93% 29.59 in 10.0 mi NW 5.8 mph - 0.00 in   Overcast
3:03 AM 66.2 °F 64.4 °F 94% 29.59 in 10.0 mi NW 4.6 mph - N/A   Overcast
3:30 AM 66.2 °F 64.4 °F 94% 29.59 in 10.0 mi Calm Calm - N/A   Overcast
3:38 AM 66.2 °F 64.4 °F 94% 29.58 in 10.0 mi NW 3.5 mph - N/A   Overcast
3:52 AM 66.2 °F 64.4 °F 94% 29.58 in 10.0 mi WNW 4.6 mph - N/A   Overcast
3:54 AM 66.0 °F 64.0 °F 93% 29.59 in 10.0 mi WNW 5.8 mph - N/A   Overcast
4:39 AM 66.2 °F 64.4 °F 94% 29.58 in 10.0 mi WNW 3.5 mph - N/A   Overcast
4:54 AM 66.0 °F 64.0 °F 93% 29.60 in 10.0 mi WNW 3.5 mph - N/A   Overcast
5:54 AM 66.0 °F 64.9 °F 96% 29.60 in 4.0 mi Calm Calm - 0.00 in Rain Light Rain
6:10 AM 66.2 °F 64.4 °F 94% 29.59 in 2.5 mi NNW 3.5 mph - 0.01 in Rain Light Rain
6:26 AM 66.2 °F 64.4 °F 94% 29.59 in 2.5 mi Calm Calm - 0.02 in Rain Light Rain
6:35 AM 66.2 °F 64.4 °F 94% 29.59 in 3.0 mi Calm Calm - 0.02 in Rain Light Rain
6:54 AM 66.0 °F 64.0 °F 93% 29.61 in 4.0 mi NW 3.5 mph - 0.02 in   Overcast
7:12 AM 66.2 °F 64.4 °F 94% 29.59 in 2.5 mi NW 3.5 mph - N/A   Overcast
7:27 AM 66.2 °F 64.4 °F 94% 29.59 in 5.0 mi NW 3.5 mph - 0.00 in Rain Light Rain
7:51 AM 66.2 °F 64.4 °F 94% 29.58 in 2.0 mi NW 4.6 mph - 0.02 in Rain Light Rain
7:54 AM 66.0 °F 64.9 °F 96% 29.60 in 1.8 mi NW 3.5 mph - 0.02 in Rain Light Rain
8:05 AM 66.2 °F 64.4 °F 94% 29.58 in 3.0 mi NW 3.5 mph - 0.01 in Rain Light Rain
8:26 AM 66.2 °F 64.4 °F 94% 29.58 in 8.0 mi NNW 3.5 mph - 0.01 in Rain Light Rain
8:43 AM 66.2 °F 66.2 °F 100% 29.58 in 6.0 mi NNW 4.6 mph - 0.02 in Rain Light Rain
8:54 AM 66.9 °F 64.9 °F 93% 29.59 in 7.0 mi NNW 4.6 mph - 0.02 in Rain Light Rain
9:02 AM 66.2 °F 64.4 °F 94% 29.57 in 5.0 mi NNW 4.6 mph - 0.01 in Rain Rain
9:54 AM 68.0 °F 64.9 °F 90% 29.58 in 10.0 mi North 4.6 mph - 0.03 in   Overcast
10:26 AM 69.8 °F 64.4 °F 83% 29.56 in 8.0 mi North 3.5 mph - 0.00 in Rain Light Rain
10:54 AM 69.1 °F 64.9 °F 87% 29.57 in 9.0 mi Calm Calm - 0.00 in Rain Light Rain
11:08 AM 69.8 °F 66.2 °F 88% 29.55 in 6.0 mi Calm Calm - 0.00 in Rain Light Rain
11:54 AM 70.0 °F 66.0 °F 87% 29.56 in 10.0 mi Calm Calm - 0.00 in   Overcast
12:54 PM - - N/A% 29.54 in - North - - N/A   Unknown
1:54 PM 75.0 °F 64.9 °F 71% 29.53 in 10.0 mi NNW 5.8 mph - N/A Rain Light Rain
2:54 PM 71.1 °F 66.0 °F 84% 29.54 in 10.0 mi NNW 10.4 mph - 0.01 in Rain Light Rain
3:54 PM 75.9 °F 66.0 °F 71% 29.49 in 10.0 mi NNW 11.5 mph - 0.00 in   Partly Cloudy
4:24 PM 73.4 °F 62.6 °F 69% 29.49 in 10.0 mi NNE 5.8 mph - N/A   Overcast
4:54 PM 73.9 °F 64.9 °F 73% 29.52 in 10.0 mi NW 9.2 mph - N/A   Overcast
5:38 PM 73.4 °F 64.4 °F 73% 29.50 in 10.0 mi NW 5.8 mph - 0.00 in   Overcast
5:54 PM 72.0 °F 64.9 °F 78% 29.52 in 10.0 mi WNW 5.8 mph - 0.00 in   Mostly Cloudy
6:17 PM 71.6 °F 64.4 °F 78% 29.51 in 10.0 mi NW 9.2 mph - N/A   Mostly Cloudy
6:54 PM 69.1 °F 64.9 °F 87% 29.54 in 10.0 mi NW 8.1 mph - 0.00 in Rain Light Rain
7:54 PM 68.0 °F 64.9 °F 90% 29.54 in 10.0 mi NW 4.6 mph - 0.02 in   Overcast
8:54 PM 68.0 °F 64.9 °F 90% 29.55 in 10.0 mi NNW 4.6 mph - N/A   Overcast
9:23 PM 66.2 °F 64.4 °F 94% 29.54 in 10.0 mi NNW 3.5 mph - N/A   Overcast
9:40 PM 66.2 °F 64.4 °F 94% 29.54 in 10.0 mi Calm Calm - N/A   Overcast
9:54 PM 66.9 °F 64.0 °F 90% 29.57 in 10.0 mi North 3.5 mph - N/A   Overcast
10:05 PM 66.2 °F 64.4 °F 94% 29.55 in 10.0 mi NW 3.5 mph - N/A   Overcast
10:13 PM 66.2 °F 64.4 °F 94% 29.55 in 9.0 mi Calm Calm - 0.01 in Rain Light Rain
10:54 PM 66.0 °F 64.0 °F 93% 29.56 in 10.0 mi Calm Calm - 0.02 in   Overcast
11:22 PM 66.2 °F 64.4 °F 94% 29.54 in 10.0 mi NNW 3.5 mph - N/A   Overcast
11:54 PM 64.9 °F 63.0 °F 93% 29.56 in 10.0 mi NNW 3.5 mph - N/A   Overcast